Overview Statistics Trail Chart Weather Telemetry Raw packets
 

This is the latest recevied weather packets stored in our database for station/object K4WCH. If no packets are shown the sender has not sent any weather packets the latest 10 day(s).

<< 16 17 18 19 20 21 22 >>
Time Temp. Humidity Pressure Rain* Wind** Luminosity Snow
1788546821 34.44° C 58% 1015 hPa 0 mm - 324 W/m² -
1788546517 33.89° C 59% 1015.3 hPa 0 mm - 512 W/m² -
1788546217 33.33° C 60% 1015.3 hPa 0 mm - 950 W/m² -
1788545912 33.89° C 60% 1015.2 hPa 0 mm - 403 W/m² -
1788545612 33.33° C 60% 1015.2 hPa 0 mm - 882 W/m² -
1788545308 33.89° C 59% 1015.4 hPa 0 mm - 409 W/m² -
1788545003 33.33° C 59% 1015.6 hPa 0 mm - 605 W/m² -
1788544702 33.89° C 62% 1015.6 hPa 0 mm - 356 W/m² -
1788544401 33.89° C 61% 1015.6 hPa 0 mm - 511 W/m² -
1788544101 33.33° C 60% 1015.4 hPa 0 mm - 965 W/m² -
1788543797 33.33° C 61% 1015.6 hPa 0 mm - 886 W/m² -
1788543493 33.33° C 62% 1015.6 hPa 0 mm - 863 W/m² -
1788543188 32.78° C 63% 1015.9 hPa 0 mm - 505 W/m² -
1788542884 32.78° C 62% 1015.8 hPa 0 mm - 346 W/m² -
1788542583 32.78° C 63% 1015.9 hPa 0 mm - 682 W/m² -
1788542278 32.78° C 65% 1015.9 hPa 0 mm - 681 W/m² -
1788541973 33.33° C 63% 1016.2 hPa 0 mm - 763 W/m² -
1788541669 32.78° C 64% 1016.2 hPa 0 mm - 889 W/m² -
1788541365 33.33° C 60% 1016.5 hPa 0 mm - 415 W/m² -
1788541064 33.33° C 62% 1016.3 hPa 0 mm - 958 W/m² -
1788540759 32.78° C 64% 1016.2 hPa 0 mm - 970 W/m² -
1788540458 32.78° C 64% 1016.1 hPa 0 mm - 818 W/m² -
1788540154 32.78° C 65% 1016.3 hPa 0 mm - 634 W/m² -
1788539850 32.22° C 67% 1016.2 hPa 0 mm - 858 W/m² -
1788539545 32.22° C 67% 1016.3 hPa 0 mm - 429 W/m² -

* Rain latest hour (hover to see other rain measurements)
** Current wind speed in m/s (hover to see current wind gust speed)